Time,TemperatureF,DewpointF,PressureIn,WindDirection,WindDirectionDegrees,WindSpeedMPH,WindSpeedGustMPH,Humidity,HourlyPrecipIn,Conditions,Clouds,dailyrainin,SoftwareType,DateUTC
2013-01-01 00:02:00,69.1,67.9,29.84,SSW,202,3.7,-999.0,96,-99.99,,,0.00,Acu-Link.com,2013-01-01 06:02:00,
2013-01-01 00:17:00,69.3,68.1,29.83,SE,135,3.2,-999.0,96,-99.99,,,0.00,Acu-Link.com,2013-01-01 06:17:00,
2013-01-01 00:32:00,69.4,68.2,29.82,ESE,112,2.2,-999.0,96,-99.99,,,0.00,Acu-Link.com,2013-01-01 06:32:00,
2013-01-01 00:47:00,69.4,68.2,29.80,SE,135,2.7,-999.0,96,-99.99,,,0.00,Acu-Link.com,2013-01-01 06:47:00,
2013-01-01 01:02:00,69.4,68.2,29.82,SSE,157,2.7,-999.0,96,-99.99,,,0.00,Acu-Link.com,2013-01-01 07:02:00,
2013-01-01 01:17:00,69.6,68.4,29.81,ESE,112,3.7,-999.0,96,-99.99,,,0.00,Acu-Link.com,2013-01-01 07:17:00,
2013-01-01 01:32:00,69.4,68.5,29.82,SSE,157,1.7,-999.0,97,-99.99,,,0.00,Acu-Link.com,2013-01-01 07:32:00,
2013-01-01 01:47:00,69.1,68.5,29.83,South,180,2.7,-999.0,98,-99.99,,,0.00,Acu-Link.com,2013-01-01 07:47:00,
2013-01-01 02:02:00,68.9,68.3,29.81,SSE,157,1.1,-999.0,98,-99.99,,,0.00,Acu-Link.com,2013-01-01 08:02:00,
2013-01-01 02:18:00,68.7,68.4,29.81,South,180,1.7,-999.0,99,-99.99,,,0.00,Acu-Link.com,2013-01-01 08:18:00,
2013-01-01 02:33:00,68.5,68.2,29.80,SE,135,1.7,-999.0,99,-99.99,,,0.00,Acu-Link.com,2013-01-01 08:33:00,
2013-01-01 02:48:00,68.4,68.1,29.80,NNE,22,3.2,-999.0,99,-99.99,,,0.00,Acu-Link.com,2013-01-01 08:48:00,
2013-01-01 03:07:00,68.4,68.1,29.77,ESE,112,1.7,-999.0,99,-99.99,,,0.01,Acu-Link.com,2013-01-01 09:07:00,
2013-01-01 03:22:00,68.4,68.1,29.76,SE,135,2.2,-999.0,99,-99.99,,,0.01,Acu-Link.com,2013-01-01 09:22:00,
2013-01-01 03:37:00,68.4,68.1,29.75,East,90,5.3,-999.0,99,-99.99,,,0.01,Acu-Link.com,2013-01-01 09:37:00,
2013-01-01 03:52:00,69.1,68.5,29.79,SSE,157,6.3,-999.0,98,-99.99,,,0.02,Acu-Link.com,2013-01-01 09:52:00,
2013-01-01 04:07:00,69.4,68.5,29.76,ESE,112,2.7,-999.0,97,-99.99,,,0.02,Acu-Link.com,2013-01-01 10:07:00,
2013-01-01 04:22:00,69.8,68.6,29.75,East,90,4.7,-999.0,96,-99.99,,,0.02,Acu-Link.com,2013-01-01 10:22:00,
2013-01-01 04:38:00,69.4,68.2,29.75,East,90,3.2,-999.0,96,-99.99,,,0.02,Acu-Link.com,2013-01-01 10:38:00,
2013-01-01 04:53:00,69.6,68.1,29.75,SE,135,2.2,-999.0,95,-99.99,,,0.02,Acu-Link.com,2013-01-01 10:53:00,
2013-01-01 05:08:00,69.6,68.1,29.76,SSE,157,4.7,-999.0,95,-99.99,,,0.02,Acu-Link.com,2013-01-01 11:08:00,
2013-01-01 05:23:00,69.1,67.9,29.77,WNW,292,2.2,-999.0,96,-99.99,,,0.02,Acu-Link.com,2013-01-01 11:23:00,
2013-01-01 05:38:00,68.5,67.9,29.78,WSW,247,4.2,-999.0,98,-99.99,,,0.03,Acu-Link.com,2013-01-01 11:38:00,
2013-01-01 05:53:00,68.0,67.4,29.79,West,270,3.7,-999.0,98,-99.99,,,0.03,Acu-Link.com,2013-01-01 11:53:00,
2013-01-01 06:08:00,68.0,67.4,29.80,West,270,3.7,-999.0,98,-99.99,,,0.03,Acu-Link.com,2013-01-01 12:08:00,
2013-01-01 06:23:00,68.0,67.7,29.83,West,270,3.2,-999.0,99,-99.99,,,0.03,Acu-Link.com,2013-01-01 12:23:00,
2013-01-01 06:38:00,67.8,67.5,29.83,West,270,4.7,-999.0,99,-99.99,,,0.03,Acu-Link.com,2013-01-01 12:38:00,
2013-01-01 06:54:00,67.6,67.3,29.81,NW,315,3.7,-999.0,99,-99.99,,,0.03,Acu-Link.com,2013-01-01 12:54:00,
2013-01-01 07:09:00,67.5,67.2,29.82,NW,315,3.2,-999.0,99,-99.99,,,0.03,Acu-Link.com,2013-01-01 13:09:00,
2013-01-01 07:24:00,67.3,67.0,29.83,WNW,292,5.3,-999.0,99,-99.99,,,0.03,Acu-Link.com,2013-01-01 13:24:00,
2013-01-01 07:39:00,67.3,67.0,29.83,West,270,1.7,-999.0,99,-99.99,,,0.04,Acu-Link.com,2013-01-01 13:39:00,
2013-01-01 07:54:00,67.3,67.0,29.83,NNW,337,2.7,-999.0,99,-99.99,,,0.04,Acu-Link.com,2013-01-01 13:54:00,
2013-01-01 08:09:00,67.3,67.0,29.84,West,270,2.7,-999.0,99,-99.99,,,0.04,Acu-Link.com,2013-01-01 14:09:00,
2013-01-01 08:24:00,67.3,67.0,29.86,West,270,3.2,-999.0,99,-99.99,,,0.04,Acu-Link.com,2013-01-01 14:24:00,
2013-01-01 08:39:00,67.3,67.0,29.87,WNW,292,2.7,-999.0,99,-99.99,,,0.04,Acu-Link.com,2013-01-01 14:39:00,
2013-01-01 08:54:00,67.3,67.0,29.88,WSW,247,4.7,-999.0,99,-99.99,,,0.04,Acu-Link.com,2013-01-01 14:54:00,
2013-01-01 09:10:00,65.3,64.7,29.90,West,270,7.3,-999.0,98,-99.99,,,0.04,Acu-Link.com,2013-01-01 15:10:00,
2013-01-01 09:25:00,63.9,63.6,29.91,WNW,292,7.8,-999.0,99,-99.99,,,0.06,Acu-Link.com,2013-01-01 15:25:00,
2013-01-01 09:40:00,61.3,60.4,29.93,WNW,292,6.3,-999.0,97,-99.99,,,0.07,Acu-Link.com,2013-01-01 15:40:00,
2013-01-01 09:55:00,60.3,59.4,29.92,NNW,337,5.8,-999.0,97,-99.99,,,0.07,Acu-Link.com,2013-01-01 15:55:00,
2013-01-01 10:10:00,59.2,58.3,29.94,NNE,22,6.3,-999.0,97,-99.99,,,0.07,Acu-Link.com,2013-01-01 16:10:00,
2013-01-01 10:25:00,58.5,57.1,29.95,NE,45,4.7,-999.0,95,-99.99,,,0.07,Acu-Link.com,2013-01-01 16:25:00,
2013-01-01 10:40:00,58.5,55.9,29.95,NW,315,8.3,-999.0,91,-99.99,,,0.07,Acu-Link.com,2013-01-01 16:40:00,
2013-01-01 10:55:00,58.5,55.9,29.95,NNW,337,7.3,-999.0,91,-99.99,,,0.08,Acu-Link.com,2013-01-01 16:55:00,
2013-01-01 11:10:00,58.6,55.4,29.96,WSW,247,6.3,-999.0,89,-99.99,,,0.08,Acu-Link.com,2013-01-01 17:10:00,
2013-01-01 11:26:00,58.6,55.4,29.96,NW,315,4.2,-999.0,89,-99.99,,,0.08,Acu-Link.com,2013-01-01 17:26:00,
2013-01-01 11:41:00,58.8,55.3,29.96,NNW,337,5.3,-999.0,88,-99.99,,,0.08,Acu-Link.com,2013-01-01 17:41:00,
2013-01-01 11:56:00,59.2,55.3,29.96,NNE,22,6.3,-999.0,87,-99.99,,,0.08,Acu-Link.com,2013-01-01 17:56:00,
2013-01-01 12:11:00,58.8,54.9,29.96,SW,225,8.3,-999.0,87,-99.99,,,0.08,Acu-Link.com,2013-01-01 18:11:00,
2013-01-01 12:26:00,58.6,54.7,29.95,NNW,337,7.8,-999.0,87,-99.99,,,0.08,Acu-Link.com,2013-01-01 18:26:00,
2013-01-01 12:41:00,58.6,54.4,29.96,NNW,337,5.3,-999.0,86,-99.99,,,0.08,Acu-Link.com,2013-01-01 18:41:00,
2013-01-01 12:56:00,58.3,54.4,29.96,West,270,4.7,-999.0,87,-99.99,,,0.08,Acu-Link.com,2013-01-01 18:56:00,
2013-01-01 13:11:00,58.1,53.9,29.95,NW,315,6.3,-999.0,86,-99.99,,,0.08,Acu-Link.com,2013-01-01 19:11:00,
2013-01-01 13:26:00,58.1,53.9,29.95,WNW,292,6.3,-999.0,86,-99.99,,,0.08,Acu-Link.com,2013-01-01 19:26:00,
2013-01-01 13:42:00,58.1,53.9,29.95,NW,315,8.3,-999.0,86,-99.99,,,0.08,Acu-Link.com,2013-01-01 19:42:00,
2013-01-01 13:57:00,59.2,53.7,29.94,NW,315,5.8,-999.0,82,-99.99,,,0.08,Acu-Link.com,2013-01-01 19:57:00,
2013-01-01 14:12:00,60.1,54.6,29.94,West,270,5.3,-999.0,82,-99.99,,,0.08,Acu-Link.com,2013-01-01 20:12:00,
2013-01-01 14:27:00,60.1,54.2,29.95,NW,315,6.8,-999.0,81,-99.99,,,0.08,Acu-Link.com,2013-01-01 20:27:00,
2013-01-01 14:42:00,60.1,53.9,29.95,WNW,292,7.3,-999.0,80,-99.99,,,0.08,Acu-Link.com,2013-01-01 20:42:00,
2013-01-01 14:57:00,59.5,54.0,29.95,North,0,4.7,-999.0,82,-99.99,,,0.08,Acu-Link.com,2013-01-01 20:57:00,
2013-01-01 15:12:00,59.4,52.9,29.96,West,270,7.3,-999.0,79,-99.99,,,0.08,Acu-Link.com,2013-01-01 21:12:00,
2013-01-01 15:27:00,58.8,52.3,29.97,NW,315,4.7,-999.0,79,-99.99,,,0.08,Acu-Link.com,2013-01-01 21:27:00,
2013-01-01 15:42:00,58.6,51.8,29.96,NNW,337,7.3,-999.0,78,-99.99,,,0.08,Acu-Link.com,2013-01-01 21:42:00,
2013-01-01 15:58:00,58.1,51.3,29.96,NNW,337,7.3,-999.0,78,-99.99,,,0.08,Acu-Link.com,2013-01-01 21:58:00,
2013-01-01 16:13:00,57.7,50.5,29.97,WSW,247,5.3,-999.0,77,-99.99,,,0.08,Acu-Link.com,2013-01-01 22:13:00,
2013-01-01 16:28:00,57.6,50.1,29.99,WNW,292,5.8,-999.0,76,-99.99,,,0.08,Acu-Link.com,2013-01-01 22:28:00,
2013-01-01 16:43:00,57.6,50.4,29.98,NW,315,6.8,-999.0,77,-99.99,,,0.08,Acu-Link.com,2013-01-01 22:43:00,
2013-01-01 16:58:00,57.6,50.4,29.99,West,270,9.4,-999.0,77,-99.99,,,0.08,Acu-Link.com,2013-01-01 22:58:00,
2013-01-01 17:13:00,57.6,50.1,29.99,NE,45,6.3,-999.0,76,-99.99,,,0.08,Acu-Link.com,2013-01-01 23:13:00,
2013-01-01 17:28:00,57.4,49.9,29.98,NNW,337,7.3,-999.0,76,-99.99,,,0.08,Acu-Link.com,2013-01-01 23:28:00,
2013-01-01 17:43:00,57.2,49.7,29.99,NNW,337,6.3,-999.0,76,-99.99,,,0.08,Acu-Link.com,2013-01-01 23:43:00,
2013-01-01 17:58:00,57.0,49.5,30.00,NNW,337,5.3,-999.0,76,-99.99,,,0.08,Acu-Link.com,2013-01-01 23:58:00,
2013-01-01 18:14:00,57.0,49.9,30.00,West,270,3.7,-999.0,77,-99.99,,,0.08,Acu-Link.com,2013-01-02 00:14:00,
2013-01-01 18:29:00,57.0,49.9,30.01,North,0,6.3,-999.0,77,-99.99,,,0.08,Acu-Link.com,2013-01-02 00:29:00,
2013-01-01 18:44:00,56.8,49.7,30.02,NW,315,6.8,-999.0,77,-99.99,,,0.08,Acu-Link.com,2013-01-02 00:44:00,
2013-01-01 18:59:00,56.8,50.0,30.02,ESE,112,6.8,-999.0,78,-99.99,,,0.08,Acu-Link.com,2013-01-02 00:59:00,
2013-01-01 19:14:00,56.7,49.6,30.02,East,90,4.2,-999.0,77,-99.99,,,0.08,Acu-Link.com,2013-01-02 01:14:00,
2013-01-01 19:29:00,56.5,49.0,30.03,North,0,3.7,-999.0,76,-99.99,,,0.08,Acu-Link.com,2013-01-02 01:29:00,
2013-01-01 19:44:00,56.5,49.0,30.04,NW,315,4.7,-999.0,76,-99.99,,,0.08,Acu-Link.com,2013-01-02 01:44:00,
2013-01-01 19:59:00,56.1,49.0,30.04,West,270,2.7,-999.0,77,-99.99,,,0.08,Acu-Link.com,2013-01-02 01:59:00,
2013-01-01 20:14:00,55.9,48.4,30.04,North,0,7.3,-999.0,76,-99.99,,,0.08,Acu-Link.com,2013-01-02 02:14:00,
2013-01-01 20:30:00,55.6,48.2,30.05,West,270,4.7,-999.0,76,-99.99,,,0.08,Acu-Link.com,2013-01-02 02:30:00,
2013-01-01 20:45:00,55.4,47.6,30.06,North,0,4.2,-999.0,75,-99.99,,,0.08,Acu-Link.com,2013-01-02 02:45:00,
2013-01-01 21:00:00,55.2,47.8,30.06,NNW,337,3.7,-999.0,76,-99.99,,,0.08,Acu-Link.com,2013-01-02 03:00:00,
2013-01-01 21:15:00,54.9,47.5,30.06,North,0,3.7,-999.0,76,-99.99,,,0.08,Acu-Link.com,2013-01-02 03:15:00,
2013-01-01 21:30:00,54.7,47.6,30.07,NNE,22,3.2,-999.0,77,-99.99,,,0.08,Acu-Link.com,2013-01-02 03:30:00,
2013-01-01 21:45:00,54.0,47.3,30.06,NNE,22,6.3,-999.0,78,-99.99,,,0.08,Acu-Link.com,2013-01-02 03:45:00,
2013-01-01 22:00:00,53.4,47.1,30.08,WNW,292,2.7,-999.0,79,-99.99,,,0.08,Acu-Link.com,2013-01-02 04:00:00,
2013-01-01 22:15:00,52.5,46.5,30.09,West,270,6.3,-999.0,80,-99.99,,,0.08,Acu-Link.com,2013-01-02 04:15:00,
2013-01-01 22:30:00,51.8,45.8,30.07,NNW,337,8.3,-999.0,80,-99.99,,,0.08,Acu-Link.com,2013-01-02 04:30:00,
2013-01-01 22:46:00,51.4,45.4,30.07,NW,315,4.7,-999.0,80,-99.99,,,0.08,Acu-Link.com,2013-01-02 04:46:00,
2013-01-01 23:01:00,51.1,45.1,30.08,NNE,22,5.3,-999.0,80,-99.99,,,0.08,Acu-Link.com,2013-01-02 05:01:00,
2013-01-01 23:16:00,50.7,44.8,30.08,SSW,202,6.3,-999.0,80,-99.99,,,0.08,Acu-Link.com,2013-01-02 05:16:00,
2013-01-01 23:31:00,50.5,44.6,30.09,NNE,22,5.3,-999.0,80,-99.99,,,0.08,Acu-Link.com,2013-01-02 05:31:00,
2013-01-01 23:46:00,50.4,44.5,30.07,NNE,22,3.7,-999.0,80,-99.99,,,0.08,Acu-Link.com,2013-01-02 05:46:00,